Overview Statistics Trail Chart Weather Telemetry Raw packets
 

This is the latest recevied weather packets stored in our database for station/object W6MAF. If no packets are shown the sender has not sent any weather packets the latest 10 day(s).

<< 86 87 88 89 90 91 92 >>
Time Temp. Humidity Pressure Rain* Wind** Luminosity Snow
1788042157 31.67° C 6% - 0 mm 8.05 m/s, 188° - -
1788041858 31.67° C 7% - 0 mm 7.6 m/s, 156° - -
1788041558 31.11° C 8% - 0 mm 8.94 m/s, 194° - -
1788041260 31.67° C 7% - 0 mm 7.6 m/s, 176° - -
1788040664 31.67° C 7% - 0 mm 8.05 m/s, 174° - -
1788040367 31.67° C 7% - 0 mm 9.39 m/s, 186° - -
1788040069 31.67° C 6% - 0 mm 7.15 m/s, 201° - -
1788039768 31.67° C 6% - 0 mm 7.6 m/s, 187° - -
1788039470 31.67° C 7% - 0 mm 8.49 m/s, 177° - -
1788039172 31.11° C 8% - 0 mm 7.6 m/s, 162° - -
1788038874 31.11° C 6% - 0 mm 9.39 m/s, 167° - -
1788038577 31.67° C 9% - 0 mm 6.71 m/s, 158° - -
1788038279 31.67° C 9% - 0 mm 8.49 m/s, 181° - -
1788037978 31.67° C 8% - 0 mm 6.71 m/s, 186° - -
1788037680 31.67° C 8% - 0 mm 8.49 m/s, 183° - -
1788037382 31.11° C 8% - 0 mm 7.6 m/s, 169° - -
1788037085 31.11° C 9% - 0 mm 7.6 m/s, 177° - -
1788036787 31.11° C 8% - 0 mm 7.15 m/s, 169° - -
1788036489 31.67° C 8% - 0 mm 7.6 m/s, 190° - -
1788036188 31.67° C 8% - 0 mm 7.15 m/s, 129° - -
1788035890 31.67° C 8% - 0 mm 8.05 m/s, 146° - -
1788035593 31.67° C 8% - 0 mm 4.02 m/s, 172° - -
1788035295 31.67° C 8% - 0 mm 6.26 m/s, 156° - -
1788034997 31.11° C 9% - 0 mm 4.92 m/s, 198° - -
1788034699 31.67° C 9% - 0 mm 7.6 m/s, 184° - -

* Rain latest hour (hover to see other rain measurements)
** Current wind speed in m/s (hover to see current wind gust speed)